sat.trackr.live / text

‹ back to catalog

TOMORROW-S8

NORAD 66308 · 2025-248R

PAYLOAD ACTIVE UNKNOWN

§ Identity

Operator
Country
US
Launch date
2025-11-02
Launch site
AFETR
Launch vehicle
Mass (kg)
RCS (m²)

External: N2YO · Heavens-Above · Gunter

§ Orbital elements

Epoch: 2026-05-24T13:56:35.644704Z

Period
94.72 min
Inclination
45.3979°
Eccentricity
0.0005999
Mean motion
15.20269268 rev/d
Perigee alt
500.9 km
Apogee alt
509.2 km
Semi-major
6,883.2 km
B*
1.3994e-4
RAAN
247.7820°
Arg perigee
258.5864°
Mean anomaly
101.4349°
Rev number
3,092

§ Raw data

TOMORROW-S81 66308U 25248R   26144.58096811  .00002811  00000+0  13994-3 0  99992 66308  45.3979 247.7820 0005999 258.5864 101.4349 15.20269268 30929

JSON: /api/v1/satellites/66308 · /tle

For live sub-satellite position, see the globe view (requires WebGL).

§ Visibility from observer

Set your observer location to see the next 7 days of passes ≥ 10°. The values pass through the URL so the page stays shareable.

No JS? Fill the form by hand. The geolocation button needs JavaScript.